EN

Hourly Weather Newtownabbey

Today, 25 January, Monday

Time Temperature Precipitation Wind Pressure Humidity
00:00 -2°C° 0 mm 5 mps 750 mmHg 89%
01:00 -2°C° 0 mm 5 mps 750 mmHg 89%
02:00 -2°C° 0 mm 5 mps 751 mmHg 89%
03:00 -2°C° 0 mm 5 mps 751 mmHg 88%
04:00 -2°C° 0 mm 5 mps 751 mmHg 88%
05:00 -2°C° 0 mm 5 mps 752 mmHg 88%
06:00 -2°C° 0 mm 5 mps 752 mmHg 89%
07:00 -2°C° 0 mm 5 mps 752 mmHg 89%
08:00 -2°C° 0 mm 5 mps 753 mmHg 89%
09:00 -2°C° 0 mm 5 mps 753 mmHg 89%
10:00 -1°C° 0 mm 5 mps 753 mmHg 85%
11:00 0°C° 0 mm 5 mps 754 mmHg 81%
12:00 +1°C° 0 mm 6 mps 754 mmHg 77%
13:00 +1°C° 0 mm 5 mps 754 mmHg 78%
14:00 +2°C° 0 mm 5 mps 754 mmHg 79%
15:00 +2°C° 0 mm 5 mps 754 mmHg 80%
16:00 +1°C° 0 mm 5 mps 754 mmHg 85%
17:00 0°C° 0 mm 5 mps 755 mmHg 89%
18:00 0°C° 0 mm 5 mps 755 mmHg 93%
19:00 -1°C° 0 mm 5 mps 755 mmHg 93%
20:00 -1°C° 0 mm 5 mps 755 mmHg 93%
21:00 -1°C° 0 mm 5 mps 756 mmHg 93%
22:00 -1°C° 0 mm 5 mps 756 mmHg 93%
23:00 -1°C° 0 mm 5 mps 756 mmHg 93%

Tomorrow, 26 January, Tuesday

Time Temperature Precipitation Wind Pressure Humidity
00:00 -1°C° 0 mm 5 mps 756 mmHg 92%
01:00 -1°C° 0 mm 4 mps 756 mmHg 93%
02:00 -1°C° 0 mm 4 mps 756 mmHg 93%
03:00 -1°C° 0 mm 4 mps 756 mmHg 93%
04:00 -1°C° 0.1 mm 4 mps 756 mmHg 94%
05:00 +1°C° 0.1 mm 3 mps 756 mmHg 95%
06:00 +1°C° 0.1 mm 3 mps 756 mmHg 96%
07:00 +1°C° 0.4 mm 4 mps 755 mmHg 97%
08:00 +1°C° 0.4 mm 4 mps 755 mmHg 97%
09:00 +3°C° 0.4 mm 4 mps 754 mmHg 97%
10:00 +2°C° 0.5 mm 5 mps 754 mmHg 97%
11:00 +3°C° 0.5 mm 6 mps 754 mmHg 96%
12:00 +4°C° 0.5 mm 7 mps 754 mmHg 96%
13:00 +4°C° 0.4 mm 6 mps 753 mmHg 96%
14:00 +5°C° 0.4 mm 5 mps 753 mmHg 97%
15:00 +5°C° 0.4 mm 4 mps 752 mmHg 97%
16:00 +5°C° 0 mm 4 mps 753 mmHg 97%
17:00 +4°C° 0 mm 3 mps 753 mmHg 97%
18:00 +5°C° 0 mm 2 mps 753 mmHg 98%
19:00 +5°C° 0 mm 2 mps 754 mmHg 98%
20:00 +5°C° 0 mm 2 mps 754 mmHg 98%
21:00 +5°C° 0 mm 2 mps 754 mmHg 98%
22:00 +5°C° 0 mm 2 mps 754 mmHg 98%
23:00 +5°C° 0 mm 2 mps 755 mmHg 97%

Day after tomorrow, 27 January, Wednesday

Time Temperature Precipitation Wind Pressure Humidity
00:00 +4°C° 0 mm 3 mps 755 mmHg 97%
01:00 +5°C° 0 mm 2 mps 755 mmHg 97%
02:00 +4°C° 0 mm 2 mps 755 mmHg 97%
03:00 +4°C° 0 mm 2 mps 755 mmHg 97%
04:00 +4°C° 0.1 mm 2 mps 755 mmHg 97%
05:00 +5°C° 0.1 mm 2 mps 755 mmHg 97%
06:00 +5°C° 0.1 mm 2 mps 754 mmHg 97%
07:00 +5°C° 0.2 mm 2 mps 754 mmHg 97%
08:00 +5°C° 0.2 mm 2 mps 754 mmHg 97%
09:00 +4°C° 0.2 mm 3 mps 754 mmHg 97%
10:00 +5°C° 0.2 mm 3 mps 754 mmHg 97%
11:00 +5°C° 0.2 mm 3 mps 754 mmHg 97%
12:00 +6°C° 0.2 mm 4 mps 754 mmHg 98%
13:00 +7°C° 0 mm 3 mps 754 mmHg 98%
14:00 +7°C° 0 mm 3 mps 753 mmHg 97%
15:00 +8°C° 0 mm 2 mps 752 mmHg 97%
16:00 +8°C° 0.2 mm 3 mps 751 mmHg 97%
17:00 +8°C° 0.2 mm 3 mps 751 mmHg 97%
18:00 +7°C° 0.2 mm 4 mps 750 mmHg 98%
19:00 +7°C° 1.3 mm 4 mps 749 mmHg 98%
20:00 +7°C° 1.3 mm 4 mps 748 mmHg 98%
21:00 +7°C° 1.3 mm 5 mps 747 mmHg 98%
22:00 +8°C° 1.2 mm 5 mps 746 mmHg 98%
23:00 +8°C° 1.2 mm 4 mps 746 mmHg 98%

28 January, Thursday

Time Temperature Precipitation Wind Pressure Humidity
00:00 +8°C° 1.2 mm 4 mps 745 mmHg 98%
01:00 +8°C° 0.2 mm 5 mps 745 mmHg 97%
02:00 +8°C° 0.2 mm 5 mps 744 mmHg 95%
03:00 +9°C° 0.2 mm 5 mps 744 mmHg 94%
04:00 +8°C° 0 mm 5 mps 744 mmHg 93%
05:00 +8°C° 0 mm 6 mps 744 mmHg 92%
06:00 +8°C° 0 mm 6 mps 744 mmHg 91%
07:00 +7°C° 0 mm 6 mps 744 mmHg 91%
08:00 +7°C° 0 mm 6 mps 744 mmHg 91%
09:00 +5°C° 0 mm 7 mps 745 mmHg 91%
10:00 +6°C° 0 mm 7 mps 745 mmHg 89%
11:00 +8°C° 0 mm 7 mps 745 mmHg 87%
12:00 +9°C° 0 mm 8 mps 745 mmHg 85%
13:00 +9°C° 0 mm 7 mps 744 mmHg 86%
14:00 +9°C° 0 mm 6 mps 744 mmHg 87%
15:00 +9°C° 0 mm 6 mps 743 mmHg 88%
16:00 +9°C° 0.1 mm 5 mps 743 mmHg 90%
17:00 +8°C° 0.1 mm 4 mps 742 mmHg 92%
18:00 +7°C° 0.1 mm 4 mps 741 mmHg 95%
19:00 +7°C° 0.4 mm 5 mps 741 mmHg 93%
20:00 +5°C° 0.4 mm 6 mps 741 mmHg 91%
21:00 +4°C° 0.4 mm 7 mps 741 mmHg 89%
22:00 +5°C° 0 mm 8 mps 741 mmHg 88%
23:00 +5°C° 0 mm 8 mps 741 mmHg 86%

29 January, Friday

Time Temperature Precipitation Wind Pressure Humidity
00:00 +5°C° 0 mm 9 mps 742 mmHg 85%
01:00 +3°C° 0 mm 9 mps 742 mmHg 85%
02:00 +3°C° 0 mm 10 mps 741 mmHg 85%
03:00 +3°C° 0 mm 10 mps 741 mmHg 84%
04:00 +3°C° 0 mm 10 mps 741 mmHg 84%
05:00 +3°C° 0 mm 11 mps 741 mmHg 83%
06:00 +3°C° 0 mm 11 mps 741 mmHg 82%
07:00 +4°C° 0.1 mm 11 mps 741 mmHg 82%
08:00 +4°C° 0.1 mm 12 mps 741 mmHg 83%
09:00 +4°C° 0.1 mm 12 mps 741 mmHg 83%
10:00 +4°C° 0.2 mm 11 mps 742 mmHg 85%
11:00 +5°C° 0.2 mm 10 mps 743 mmHg 87%
12:00 +3°C° 0.2 mm 9 mps 744 mmHg 89%
13:00 +3°C° 0.2 mm 9 mps 744 mmHg 88%
14:00 +2°C° 0.2 mm 9 mps 745 mmHg 87%
15:00 +1°C° 0.2 mm 9 mps 746 mmHg 86%
16:00 0°C° 0 mm 8 mps 747 mmHg 84%
17:00 0°C° 0 mm 8 mps 748 mmHg 83%
18:00 -1°C° 0 mm 7 mps 749 mmHg 81%
19:00 -1°C° 0 mm 7 mps 750 mmHg 80%
20:00 -1°C° 0 mm 6 mps 751 mmHg 79%
21:00 -2°C° 0 mm 6 mps 752 mmHg 79%
22:00 -1°C° 0 mm 5 mps 753 mmHg 79%
23:00 -1°C° 0 mm 4 mps 754 mmHg 79%

30 January, Saturday

Time Temperature Precipitation Wind Pressure Humidity
00:00 -1°C° 0 mm 4 mps 754 mmHg 80%
01:00 0°C° 0 mm 3 mps 755 mmHg 79%
02:00 0°C° 0 mm 3 mps 756 mmHg 79%
03:00 +1°C° 0 mm 2 mps 756 mmHg 78%
04:00 -1°C° 0 mm 2 mps 757 mmHg 78%
05:00 -1°C° 0 mm 2 mps 757 mmHg 78%
06:00 -1°C° 0 mm 2 mps 757 mmHg 77%
07:00 +1°C° 0 mm 1 mps 758 mmHg 77%
08:00 +1°C° 0 mm 1 mps 759 mmHg 77%
09:00 +1°C° 0 mm 1 mps 759 mmHg 77%
10:00 +2°C° 0 mm 1 mps 759 mmHg 73%
11:00 +4°C° 0 mm 1 mps 760 mmHg 70%
12:00 +5°C° 0 mm 1 mps 760 mmHg 66%
13:00 +4°C° 0 mm 2 mps 760 mmHg 67%
14:00 +3°C° 0 mm 3 mps 759 mmHg 68%
15:00 +3°C° 0 mm 3 mps 759 mmHg 69%
16:00 +2°C° 0 mm 3 mps 759 mmHg 74%
17:00 0°C° 0 mm 4 mps 758 mmHg 79%
18:00 -1°C° 0 mm 4 mps 758 mmHg 84%
19:00 0°C° 0 mm 5 mps 757 mmHg 82%
20:00 0°C° 0 mm 5 mps 756 mmHg 80%
21:00 -1°C° 0 mm 6 mps 755 mmHg 78%
22:00 0°C° 0 mm 7 mps 754 mmHg 76%
23:00 0°C° 0 mm 8 mps 753 mmHg 74%
Show more